Location: Kellogg
(38.0159°N, 90.0546°W)
Time: 06:23:49
(UTC+00:00)

Hubble Space Telescope - Pass Details

Date: 17 August 2024
Orbit: 505 x 509 km, 28.5° (Epoch: 19 September)

Event Time Altitude Azimuth Distance (km) Brightness Sun altitude
Exits shadow 09:44:52 20° 178° (S) 1,199 2.2 -17.3°
Drops below altitude 10° 09:47:46 10° 130° (SE) 1,711 3.5 -16.8°
Sets 09:50:25 0° 114° (ESE) 2,598 4.8 -16.4°
